Dewpoint
59 58 58 57 57 57 55 56 56 54 54 54 53 53 53 53 54 55 54 54 52 52 52 52 51 51 50 47 39 46 62 61 49 35 31 30 30 28 25 25 23 18 13 12 11 12 9
59 58 58 57 57 56 55 56 56 54 54 53 54 53 53 53 53 54 53 54 52 52 52 51 51 51 47 34 31 47 52 45 40 35 33 31 30 30 29 21 17 18 9 10 14 8 6
59 58 57 56 56 56 56 56 56 54 54 53 53 53 53 53 54 54 54 54 52 52 51 50 50 50 49 37 34 39 45 39 40 36 34 34 31 28 29 24 19 10 5 9 11 14 14
58 58 57 56 55 55 56 56 55 53 53 53 53 53 52 53 54 54 53 52 52 51 51 51 52 50 40 37 40 38 33 25 36 37 33 32 36 33 29 21 18 12 13 8 10 16 17
58 58 57 56 55 56 55 55 55 53 53 53 53 53 53 54 55 53 52 52 52 50 51 51 49 50 31 36 31 24 22 23 26 34 33 27 30 23 18 16 13 15 9 14 15 18 16
58 57 57 56 56 56 56 55 55 53 53 53 52 52 55 54 54 53 51 51 51 52 52 51 51 41 34 22 32 22 23 25 28 32 29 27 25 21 21 12 9 9 12 21 13 22 27
58 57 56 56 56 56 56 55 55 53 53 53 55 55 54 54 54 53 51 50 44 43 49 28 29 26 31 31 23 21 23 27 28 26 24 26 21 18 22 19 15 17 16 16 17 20 28
57 56 56 56 56 56 56 55 55 55 55 55 54 54 54 54 54 53 50 48 39 45 40 43 41 37 38 34 25 23 29 25 26 23 26 22 21 24 29 28 24 22 20 20 22 25 31
56 56 56 56 56 56 55 55 55 55 54 54 54 53 54 54 54 53 50 45 49 47 39 31 38 31 31 28 24 25 27 28 23 23 24 21 25 28 28 27 25 27 22 23 21 27 29
56 55 55 55 55 55 54 55 55 55 53 53 53 53 53 53 50 49 46 45 53 43 25 24 25 25 28 27 23 26 27 26 26 24 29 28 30 27 25 25 27 24 28 25 23 25 23
55 54 54 54 55 54 53 54 54 54 53 53 53 53 53 52 47 51 49 57 52 39 16 22 25 27 26 28 24 23 33 26 23 25 27 28 28 26 25 26 27 27 30 27 25 24 22
55 54 54 54 53 53 52 53 53 53 52 53 53 53 52 52 49 49 54 46 38 33 18 25 27 25 26 28 27 28 31 32 30 30 29 28 29 28 27 29 28 29 30 30 31 27 23
54 54 53 53 53 52 52 53 52 52 52 52 52 53 53 51 50 56 50 36 28 27 27 23 25 25 26 28 29 29 29 29 26 24 26 26 27 27 29 28 29 31 28 25 25 24 24
54 53 53 53 52 52 52 53 52 51 52 52 52 52 52 51 54 54 38 28 23 30 25 26 27 27 25 29 29 29 28 26 28 28 27 24 19 24 26 27 26 26 28 26 21 23 23
54 53 53 52 52 52 52 52 52 51 52 52 52 50 52 56 54 47 34 26 27 32 26 27 27 26 27 28 28 28 28 26 29 29 27 25 24 27 26 28 29 28 25 28 27 26 24
54 53 52 52 51 52 52 52 51 51 52 52 50 50 48 54 51 45 34 28 35 38 29 28 25 28 25 27 27 28 29 32 31 33 31 29 24 26 26 30 29 27 29 24 25 17 16
53 52 52 51 51 52 52 52 51 51 52 52 43 36 39 53 41 36 28 31 40 38 34 27 27 28 27 26 29 30 30 33 36 35 32 29 25 23 27 26 26 27 25 27 27 24 19
52 51 51 51 51 51 51 51 51 51 51 51 39 30 46 39 31 37 35 40 41 31 35 35 33 30 28 33 33 33 31 33 37 37 28 32 28 25 24 29 32 28 26 24 21 20 24
52 51 50 51 51 51 51 51 51 51 52 48 41 48 52 37 27 31 34 37 36 31 33 33 34 35 36 35 32 35 35 37 33 34 31 30 27 25 24 25 26 26 30 28 26 25 24
51 50 50 51 51 51 51 51 51 51 52 48 44 41 44 41 36 30 30 34 33 36 35 34 35 35 35 36 37 35 35 37 34 34 40 36 29 23 21 21 25 24 28 28 24 21 21
50 50 50 51 50 50 50 51 51 51 51 50 42 39 42 38 39 32 32 35 33 32 35 34 33 34 34 33 34 34 36 34 33 38 37 31 26 27 28 29 26 22 22 28 25 24 22
50 50 50 50 49 49 50 50 50 50 51 47 46 38 36 35 41 39 36 34 33 34 34 32 32 36 34 33 32 34 33 30 23 35 35 34 27 23 28 30 29 25 23 24 27 26 27
50 49 49 49 49 50 50 50 50 50 49 45 48 46 38 36 37 38 38 37 35 36 38 37 35 35 33 36 38 38 37 36 34 34 34 30 27 20 15 27 22 17 22 24 24 26 25
50 48 48 48 50 50 50 49 50 50 49 48 49 46 40 32 33 37 38 39 37 35 35 38 37 34 37 37 35 33 33 37 39 39 35 29 26 21 17 18 8 19 28 28 26 27 28
50 49 49 51 50 50 49 49 50 49 50 50 51 45 40 30 32 35 39 40 40 41 40 40 42 40 38 31 30 28 27 27 30 36 33 31 26 23 16 17 16 14 23 28 27 25 33
49 50 50 50 50 49 49 49 49 49 51 53 51 46 43 38 37 38 39 39 37 37 37 40 44 41 35 29 25 22 22 24 24 32 35 30 26 22 17 9 5 17 26 31 29 25 32
49 50 50 50 49 49 49 49 50 50 51 51 50 49 45 41 43 41 38 38 39 37 37 39 39 37 35 26 22 21 21 25 24 24 26 26 25 18 12 12 19 22 30 32 22 23 36
49 49 49 49 49 49 49 49 50 51 50 52 50 51 45 42 44 46 45 41 41 39 36 39 37 36 31 27 25 25 23 28 28 28 31 29 27 21 21 13 16 28 32 27 30 32 37
48 48 49 50 49 47 47 48 49 50 50 52 50 53 50 46 45 48 48 47 46 41 42 39 37 37 37 31 26 27 29 29 26 24 32 26 27 25 25 25 28 30 33 34 34 33 38
Lifted_Index
6 6 7 7 8 8 8 8 8 8 8 8 7 7 6 6 6 6 6 6 6 6 7 6 6 5 4 3 2 1 0 1 2 3 3 3 2 1 1 1 1 1 1 1 1 0 -0
6 6 7 8 8 8 8 8 8 8 8 8 7 7 7 6 6 6 6 6 6 7 7 6 6 5 4 2 1 1 1 2 2 2 2 2 1 1 1 1 1 1 1 1 1 0 1
6 6 7 8 8 9 8 8 8 8 8 8 7 7 7 6 6 5 6 6 6 7 6 6 5 4 3 2 1 1 2 2 2 2 1 1 1 1 1 1 1 1 1 1 1 1 1
5 6 7 8 8 9 9 8 8 8 8 7 7 6 6 6 6 5 6 6 6 6 6 5 4 3 2 1 1 1 2 2 2 1 1 1 1 1 1 1 1 1 1 2 2 2 2
5 6 7 8 8 8 9 9 9 8 8 7 6 6 6 6 6 6 6 6 6 5 5 4 3 2 1 1 1 1 2 1 1 1 1 1 1 1 1 1 1 1 1 1 2 2 2
5 6 6 7 8 8 8 9 8 8 7 6 6 6 6 6 6 6 6 5 4 4 3 3 2 2 1 1 1 2 2 1 1 1 1 1 1 1 1 0 1 1 1 1 2 2 2
5 6 6 7 7 8 8 8 8 8 7 6 6 6 6 6 6 5 5 3 2 2 2 2 2 2 1 1 1 2 1 1 0 0 0 0 0 0 0 1 1 1 1 1 1 2 2
6 6 6 6 7 7 8 8 8 7 7 6 5 5 6 6 6 5 3 0 -1 -0 1 1 2 2 1 2 2 2 1 1 0 0 0 0 0 0 0 1 1 1 1 1 1 2 2
6 6 6 6 7 7 7 8 8 7 6 6 5 5 5 6 5 3 0 -1 -2 -1 0 1 1 1 2 2 2 1 1 1 0 0 0 0 0 0 0 1 1 1 1 1 1 1 1
5 6 6 6 7 7 7 8 7 7 6 6 5 5 5 5 4 2 -1 -2 -2 -1 0 1 2 2 2 2 2 2 1 1 0 0 0 0 0 0 0 0 1 1 1 1 1 0 0
5 5 6 6 7 7 7 8 7 7 6 5 5 5 5 4 2 0 -1 -2 -1 -0 1 2 2 2 2 2 2 2 1 1 0 0 0 0 0 0 1 1 1 1 1 1 1 0 0
4 4 5 6 7 7 7 7 7 6 6 5 5 4 4 2 0 -1 -1 -1 0 1 1 2 2 2 2 2 2 2 1 1 1 1 1 1 1 1 1 1 1 1 1 1 1 1 1
3 3 5 6 7 7 7 7 7 6 5 5 4 4 3 1 -1 -1 -0 1 1 1 2 2 2 2 2 2 2 2 1 1 1 1 1 1 1 1 1 1 2 2 1 1 1 1 1
2 3 4 6 7 7 7 7 7 6 5 5 4 3 2 0 -1 -0 1 1 1 1 2 2 2 2 2 2 2 2 1 1 1 1 1 1 2 2 2 1 2 2 2 1 1 0 1
2 2 4 6 7 7 7 7 7 6 5 5 4 3 1 0 -0 1 2 2 1 1 2 2 2 2 2 2 2 2 1 1 1 1 1 1 2 2 2 1 2 2 2 2 1 1 1
2 2 4 6 6 6 6 7 6 6 5 4 3 2 1 0 1 2 2 1 1 1 2 2 2 2 2 1 1 2 2 2 1 1 1 1 1 2 2 2 2 2 3 3 2 1 1
2 2 4 5 5 5 6 6 6 6 5 4 3 2 1 1 2 3 2 1 0 1 2 2 2 2 2 1 1 1 2 2 2 1 1 1 1 2 2 2 2 3 3 3 2 2 1
2 3 4 4 4 4 5 5 5 5 5 4 3 2 1 2 3 3 2 1 0 1 1 1 1 1 1 1 1 1 2 2 2 1 1 1 1 2 2 3 3 3 3 3 3 2 2
2 3 4 4 4 4 4 4 5 5 5 3 3 2 1 3 4 4 2 1 0 1 1 1 1 1 1 1 1 1 1 2 2 2 2 1 2 2 2 3 3 3 3 3 3 3 2
3 4 4 4 4 4 4 4 4 5 4 3 3 2 2 3 4 4 3 1 1 1 1 1 1 1 1 1 1 1 1 1 2 2 2 2 2 2 2 3 3 3 3 3 3 3 2
5 5 4 4 4 3 3 3 4 4 4 3 3 3 3 4 4 5 4 2 1 1 1 1 1 1 1 1 1 1 1 1 2 3 3 3 3 3 3 3 3 3 3 3 3 3 2
5 5 5 4 4 3 3 3 4 4 3 2 2 3 4 4 4 4 4 3 2 1 1 1 1 1 1 1 1 1 2 2 2 3 3 3 3 3 3 3 3 3 3 3 3 3 3
6 5 5 4 3 3 2 3 3 4 3 2 2 2 3 4 4 4 3 3 2 1 1 2 2 2 2 1 1 2 2 3 3 4 4 4 4 3 3 3 3 3 3 3 3 3 4
6 6 5 3 3 2 2 2 3 3 3 2 1 2 3 4 4 3 3 2 1 1 2 2 2 2 2 2 2 2 3 3 4 4 4 4 4 3 3 2 2 3 3 3 3 4 4
6 5 4 3 3 2 1 2 2 3 2 2 1 1 2 3 4 3 3 2 1 1 2 2 2 2 2 2 2 2 3 3 4 4 4 4 4 3 3 2 3 3 4 4 4 4 4
6 5 4 3 3 2 1 1 2 3 2 2 1 1 1 2 3 3 2 1 1 1 1 2 2 2 2 2 2 3 3 3 4 4 4 4 4 4 3 3 3 4 4 4 4 4 4
5 4 4 3 2 1 1 1 2 3 3 2 1 1 1 2 2 2 2 1 1 1 1 2 2 2 2 3 3 3 3 4 4 4 4 4 4 4 4 3 4 5 5 4 4 4 5
5 4 4 3 2 1 0 1 2 2 2 2 1 1 2 2 2 1 1 1 1 1 1 2 2 2 3 3 3 3 4 4 5 5 5 4 4 4 4 4 4 5 5 4 4 4 5
5 4 4 3 2 1 0 0 1 2 2 1 1 1 2 2 1 1 1 1 1 1 1 2 2 2 3 3 3 3 4 4 5 5 5 4 4 4 4 4 4 5 5 4 4 4 4